Regional Weather Roundup
Issued by NWS Wakefield, VA

Home | Current Version | Previous Version | Text Only | Print | Product List | Glossary Off
Versions: 1 2 3 4 5 6 7 8 9 10 11 12 13 14 15 16 17 18 19 20 21 22 23 24 25 26 27 28 29 30 31 32 33 34 35 36 37 38 39 40 41 42 43 44 45 46 47 48 49 50

000
ASUS41 KAKQ 190514
RWRAKQ

REGIONAL WEATHER ROUNDUP
NATIONAL WEATHER SERVICE WAKEFIELD VA
100 AM EDT THU APR 19 2018

Note: "fair" indicates few or no clouds below 12,000 feet with no
significant weather and/or obstructions to visibility. * = Denotes
station may not report precipitation (e.g., rain,snow,etc.),
thunder or fog.

VAZ042-051-052>054-056-190600-
NORTHERN VIRGINIA

CITY           SKY/WX    TMP DP  RH WIND       PRES   REMARKS
WASH NATIONAL  FAIR      52  41  66 E3        29.67F
DULLES         FAIR      48  40  73 E3        29.66F
FORT BELVOIR   FAIR      47  41  79 CALM      29.66F
QUANTICO       FAIR      51  47  86 S7        29.66F
FREDERICKSBRG* FAIR      49  46  87 E5        29.65F
STAFFORD*      FAIR      49  49 100 E6        29.68F
WARRENTON      FAIR      46  39  77 CALM      29.64F
CULPEPER*      FAIR      46  40  77 CALM      29.66F
MANASSAS*      FAIR      49  40  71 N6        29.66F
LEESBURG*      FAIR      50  41  71 E3        29.67F
WINCHESTER     CLOUDY    46  37  71 E3        29.65F
FRONT ROYAL*   FAIR      50  39  66 CALM      29.62F
LURAY*         FAIR      46  41  81 NE3       29.61F
$$

VAZ048-049-060>072-079>083-190600-
CENTRAL AND SOUTH CENTRAL VIRGINIA

CITY           SKY/WX    TMP DP  RH WIND       PRES   REMARKS
RICHMOND       FAIR      49  49 100 SE5       29.62F
CHESTERFIELD*  FAIR      52  48  86 E3        29.62F
PETERSBURG*    FAIR      49  46  90 CALM      29.63F
HANOVER        FAIR      49  46  90 CALM      29.64F
TAPPAHANNOCK*  FAIR      49  47  93 E3        29.64F
QUINTON*       FAIR      47  47 100 SE5       29.63F
CHARLOTTSVILLE FAIR      54  40  59 CALM      29.64F
GORDONSVILLE*  FAIR      48  43  82 CALM      29.64F
ORANGE*        FAIR      46  41  81 CALM      29.65F
LOUISA*        FAIR      49  43  79 NE3       29.68F
BUMPASS*       FAIR      48  45  88 E5        29.64F
FARMVILLE*     FAIR      64  45  50 N3        29.61R
CREWE*         FAIR      65  46  49 SW6       29.62S
FORT PICKETT*  FAIR      66  43  44 SW13G18   29.63S
CHASE CITY*    FAIR      67  42  40 S3        29.66S
CLARKSVILLE*   FAIR      68  41  37 SW10      29.66S
SOUTH HILL*    FAIR      64  46  50 SW9       29.71F
LAWRENCEVILLE* FAIR      68  42  39 SW12      29.64F
EMPORIA*       FAIR      61  46  59 SE3       29.67F
$$

VAZ088>098-190600-
SOUTHEAST VIRGINIA

CITY           SKY/WX    TMP DP  RH WIND       PRES   REMARKS
NORFOLK        FAIR      60  54  80 SW14      29.65F
VIRGINIA BEACH FAIR      62  53  72 S13       29.66F
NORFOLK NAVAL  FAIR      60  51  72 S13G20    29.66F
WEST POINT*    FAIR      47  45  93 E3        29.65F
SALUDA*        FAIR      50  50 100 SE5       29.65F
NEWPORT NEWS   FAIR      50  47  89 CALM      29.65F
LANGLEY AFB    FAIR      52  51  96 S5        29.65F
FORT EUSTIS    FAIR      54  50  87 SE6       29.62F
WILLIAMSBURG*  FAIR      52  50  93 CALM      29.64F
HR EXEC AP*    FAIR      59  52  77 S8        29.66F
FRANKLIN*      FAIR      63  50  63 S7        29.66F
US460-WAKEFLD  FAIR      60  52  74 S3        29.64F
$$

VAZ020-022-025-037-045-190600-
WEST CENTRAL AND SOUTHWEST VIRGINIA

CITY           SKY/WX    TMP DP  RH WIND       PRES   REMARKS
STAUNTON*      FAIR      46  40  78 CALM      29.65S
WAYNESBORO*    FAIR      53  42  67 NW6       29.63F
HOT SPRINGS VA FAIR      62  42  49 W20G31    29.72S
LYNCHBURG      FAIR      64  41  42 SW5       29.65S
DANVILLE       FAIR      68  44  42 SW12      29.68S
SOUTH BOSTON*  FAIR      69  39  33 SW6       29.67R
MARTINSVILLE   FAIR      68  40  36 SW5       29.72S
ROANOKE        FAIR      71  52  50 VRB7      29.67F
BLACKSBURG     FAIR      67  54  61 SW10G20   29.72F
DUBLIN*        FAIR      67  49  52 W17G25    29.73F
MARION*        FAIR      66  52  60 W23G43    29.77S
HILLSVILLE*    CLOUDY    66  51  57 W15G31    29.75F
RICHLANDS*     FAIR      63  33  33 SW21G32   29.79S
WISE*          MOCLDY    61  52  72 SW14      29.81F
ABINGDON*      FAIR      67  54  63 W17G31    29.80F
$$

MDZ021>025-VAZ099-100-190600-
SOUTHERN MARYLAND AND THE DELMARVA PENINSULA

CITY           SKY/WX    TMP DP  RH WIND       PRES   REMARKS
PATUXENT RIVER FAIR      52  46  80 SE12      29.65F
BAY BRIDGE APT MOCLDY    50  41  71 E5        29.68F
LEONARDTOWN    FAIR      48  43  81 E7        29.66F
DOVER          CLOUDY    49  42  76 SE5       29.69F
GEORGETOWN     FAIR      47  41  80 E5        29.69F
EASTON         FAIR      48  41  76 SE5       29.71F
CAMBRIDGE      CLEAR     46  41  81 E3        29.67F
SALISBURY      FAIR      45  43  93 E5        29.67F
TANGIER        FAIR      52  48  87 SE15G21   29.65F
OCEAN CITY     FAIR      49  44  83 VRB3      29.70F
WALLOPS ISLAND FAIR      51  47  86 SE9       29.69F
ACCOMACK*      FAIR      50  48  90 SE7       29.67F
$$

NCZ012>017-030>032-190600-
NORTH CENTRAL AND EASTERN NORTH CAROLINA

CITY           SKY/WX    TMP DP  RH WIND       PRES   REMARKS
ROANOKE RAPIDS FAIR      63  45  51 SW9       29.67F
RALEIGH        FAIR      68  44  42 SW15      29.72S
ELIZABETH CITY FAIR      64  55  72 S10       29.71F
AHOSKIE*       FAIR      64  46  52 SW3       29.68F
EDENTON*       FAIR      64  55  72 S8        29.72F
CURRITUCK*     NOT AVBL
KILL DEVIL HLS FAIR      62  52  69 S6        29.73F
MANTEO         FAIR      62  55  75 SW13      29.75F
CAPE HATTERAS  FAIR      67  58  72 SW18G29   29.80R
TARBORO*       NOT AVBL
GOLDSBORO      FAIR      67  50  53 SW9       29.73F
WASHINGTON     FAIR      67  51  56 SW13      29.74S
GREENVILLE     FAIR      68  50  52 SW10G17   29.76S
NEW BERN       FAIR      64  52  64 SW10      29.78F
WILMINGTON     FAIR      68  52  56 SW13      29.83S
$$

VAZ048-190600-
ELSEWHERE

CITY           SKY/WX    TMP DP  RH WIND       PRES   REMARKS
HARRISBURG PA  LGT RAIN  50  37  61 SE5       29.69S
BALTIMORE      FAIR      49  41  74 NE3       29.67F
ANNAPOLIS      MOCLDY    54  46  74 E6        29.67F
ANDREWS AFB    FAIR      47  41  77 E3        29.65F
PHILADELPHIA   CLOUDY    49  37  63 E5        29.73F
HENDERSON NC   FAIR      63  40  43 SW8       29.69R
GREENSBORO     FAIR      69  43  38 W10       29.72R
ROCKY MOUNT    FAIR      69  47  45 SW10      29.71F
$$

VAZ100-190600-
MARINE

STATION/POSITION TIME  TEMP    WIND        PRES    WAVE   SWELL
                       AIR SEA DIR/SP/G            HT/PER HT/PER
                 (UTC) (F)     (DEG/KT/KT) (MB)    (FT/S) (FT/S)
BRANDYWINE LGT   0436   48     180/ 14/ 15 1006.2F
CAPE MAY NJ      0448   47 50  120/  6/  7 1005.5F
LEWES DE         0448   50 50  170/  6/ 10 1005.4F
15NM E FENWICK I 0450   47 46  130/ 12/ 14 1006.1F   3/15   2/15
OCEAN-CITY-INLET 0448   49 49  150/  7/ 10 1006.1F
WACHAPREAGUE VA  0448   51 56  120/  7/ 10 1005.0F
THOMAS POINT MD  0500   51 51  130/  5/  5 1005.6F
GOOSES REEF MD   0500   50     110/  8/ 12 1004.9
COVE POINT MD    0448   51     160/ 12/ 14 1004.8F
SOLOMONS ISLAND  0448   51 52  120/ 13/ 15 1003.8F
BISHOPS HEAD MD  0448   51 55  120/ 12/ 15 1004.5F
PINEY POINT MD   0448          150/ 19/ 21   N/A
POTOMAC MD       0500   51 52  150/ 14/ 17 1005.3    2/ 3
CAMBRIDGE MD     0448   48 54              1005.4F
LEWISETTA VA     0448   50 55  140/  6/  7 1004.0F
RAPPAHANNOCK LGT 0448          110/ 16/ 18 1004.5F
YORK RVR RNG VA  0448   53     160/  9/ 11 1004.5F
YORKTOWN VA      0448   52 55  120/  3/  4 1003.5F
DOMINION TERM VA 0448   57     160/  5/  7 1004.3F
KIPTOPEKE VA     0448      53  150/ 11/ 13   N/A
CAPE HENRY VA    0448   60     190/ 11/ 14   N/A
WILLOUBY STN VA  0448   60     200/ 12/ 14 1003.9F
S CRANEY ISL VA  0448   58     200/  8/ 10 1004.1F
CAPE HENRY BUOY  0500      51                N/A     2/ 8
64NM E OF VA BCH 0450   55 50  200/ 16/ 17 1006.5F   3/ 6   2/ 6
DUCK PIER NC     0448   65 49  200/ 14/ 19 1005.9F
44100 DUCK FRF   0445      50                N/A     2/10   2/17
44056 DUCK FRF   0500      49                N/A     2/14   2/14
OREGON INLET NC  0436   63 62  200/ 17/ 20 1007.7S
HATTERAS NC      0448   66 63  220/ 16/ 24 1008.5S
DIAMOND SHLS NC  0450   69 63  230/ 21/ 27 1009.7R   7/ 7
CAPE LOOKOUT NC  0500          230/ 17/ 21 1009.8F
$$



USA.gov is the U.S. government's official web portal to all federal, state and local government web resources and services.